Location: Niedergestelen
(46.3129°N, 7.7822°E)
Time: 21:01:00
(UTC+00:00)

DMSP 5D-2 F9 DEB - Visible Passes

Search period start: 24 June 2021 00:00
Search period end: 04 July 2021 00:00
Orbit: 741 x 776 km, 99.1° (Epoch: 24 June)

Date Brightness Start Highest point End Pass type
(mag) Time Alt. Az. Time Alt. Az. Time Alt. Az.
24 Jun ? 19:56:20 10° SE 20:01:04 39° ENE 20:05:48 10° N visible
24 Jun ? 21:35:25 10° SSW 21:39:53 30° W 21:44:25 10° NW visible
25 Jun ? 20:56:09 12° S 21:00:56 67° WSW 21:06:05 10° NNW visible
26 Jun ? 20:17:12 10° SSE 20:22:13 58° ENE 20:27:16 10° N visible
26 Jun ? 21:57:35 10° SW 22:01:20 20° W 22:05:08 10° NW visible
27 Jun ? 21:17:42 12° S 21:22:16 44° W 21:27:11 10° NNW visible
28 Jun ? 20:38:27 11° SSE 20:43:25 86° ENE 20:48:35 10° NNW visible
28 Jun ? 22:20:26 10° WSW 22:22:51 13° W 22:25:16 10° WNW visible
29 Jun ? 20:00:00 10° SE 20:04:46 40° ENE 20:09:34 10° N visible
29 Jun ? 21:39:14 10° SSW 21:43:38 29° W 21:48:06 10° NW visible
30 Jun ? 20:59:58 12° S 21:04:39 64° WSW 21:09:46 10° NNW visible
01 Jul ? 20:20:51 10° SSE 20:25:53 60° ENE 20:30:57 10° N visible
01 Jul ? 22:01:23 10° SW 22:05:02 19° W 22:08:43 10° NW visible
02 Jul ? 21:21:29 12° SSW 21:25:56 42° W 21:30:48 10° NNW visible
03 Jul ? 20:42:13 12° SSE 20:47:02 89° E 20:52:12 10° NNW visible
03 Jul ? 22:24:19 10° WSW 22:26:30 13° W 22:28:42 10° WNW visible
